When you browse on this site, cookies collect data to enhance your experience and personalize the content and advertising you see.
Visit our Privacy Policy to learn more. By continuing to use the site, you agree to this use of cookies and data.
  • En España
  • Lista de países
  • Para 7 días
  • Temperatura del agua
  • Mapa Satelital
  • El tiempo en el mapa
  • Informadores
  • user-avatar
    Iniciar sesión

    Tiempo cada hora Bhubaneswar

    Hoy, 20 Julio, Sábado

    Tiempo Temperatura Precipitaciones Viento Presión Humedad
    00:00 +30°C° 0 mm 2 mps 749 mmHg 80%
    01:00 +30°C° 0.2 mm 2 mps 749 mmHg 81%
    02:00 +30°C° 0.2 mm 3 mps 749 mmHg 82%
    03:00 +30°C° 0.2 mm 3 mps 749 mmHg 83%
    04:00 +30°C° 0.1 mm 2 mps 749 mmHg 84%
    05:00 +29°C° 0.1 mm 2 mps 749 mmHg 85%
    06:00 +29°C° 0 mm 2 mps 749 mmHg 88%
    07:00 +31°C° 0.1 mm 3 mps 749 mmHg 81%
    08:00 +33°C° 0.1 mm 3 mps 749 mmHg 74%
    09:00 +34°C° 0.1 mm 4 mps 750 mmHg 67%
    10:00 +35°C° 0.1 mm 4 mps 750 mmHg 64%
    11:00 +36°C° 0.1 mm 4 mps 750 mmHg 61%
    12:00 +37°C° 0.1 mm 5 mps 750 mmHg 57%
    13:00 +37°C° 0.1 mm 5 mps 749 mmHg 58%
    14:00 +37°C° 0.1 mm 5 mps 748 mmHg 59%
    15:00 +37°C° 0.1 mm 5 mps 747 mmHg 59%
    16:00 +36°C° 0 mm 5 mps 747 mmHg 63%
    17:00 +35°C° 0 mm 5 mps 747 mmHg 66%
    18:00 +34°C° 0 mm 5 mps 747 mmHg 69%
    19:00 +33°C° 0 mm 5 mps 748 mmHg 72%
    20:00 +32°C° 0 mm 4 mps 748 mmHg 76%
    21:00 +32°C° 0 mm 4 mps 749 mmHg 79%
    22:00 +30°C° 0 mm 4 mps 749 mmHg 79%
    23:00 +30°C° 0 mm 4 mps 750 mmHg 80%

    Mañana, 21 Julio, Domingo

    Tiempo Temperatura Precipitaciones Viento Presión Humedad
    00:00 +30°C° 0 mm 3 mps 750 mmHg 80%
    01:00 +30°C° 0 mm 3 mps 749 mmHg 81%
    02:00 +30°C° 0 mm 3 mps 749 mmHg 83%
    03:00 +30°C° 0 mm 3 mps 749 mmHg 84%
    04:00 +30°C° 0 mm 2 mps 749 mmHg 85%
    05:00 +29°C° 0 mm 2 mps 749 mmHg 86%
    06:00 +29°C° 0 mm 2 mps 749 mmHg 87%
    07:00 +30°C° 0 mm 2 mps 749 mmHg 80%
    08:00 +33°C° 0 mm 3 mps 750 mmHg 72%
    09:00 +34°C° 0 mm 4 mps 750 mmHg 65%
    10:00 +35°C° 0 mm 4 mps 750 mmHg 60%
    11:00 +36°C° 0 mm 4 mps 750 mmHg 55%
    12:00 +37°C° 0 mm 4 mps 750 mmHg 50%
    13:00 +38°C° 0 mm 4 mps 750 mmHg 50%
    14:00 +39°C° 0 mm 5 mps 749 mmHg 50%
    15:00 +39°C° 0 mm 5 mps 748 mmHg 50%
    16:00 +37°C° 0 mm 5 mps 748 mmHg 54%
    17:00 +35°C° 0 mm 5 mps 748 mmHg 58%
    18:00 +34°C° 0 mm 5 mps 747 mmHg 63%
    19:00 +33°C° 0 mm 5 mps 748 mmHg 67%
    20:00 +33°C° 0 mm 4 mps 749 mmHg 72%
    21:00 +32°C° 0 mm 4 mps 749 mmHg 77%
    22:00 +32°C° 0 mm 4 mps 749 mmHg 78%
    23:00 +32°C° 0 mm 4 mps 749 mmHg 80%

    Pasado mañana, 22 Julio, Lunes

    Tiempo Temperatura Precipitaciones Viento Presión Humedad
    00:00 +30°C° 0 mm 4 mps 749 mmHg 81%
    01:00 +30°C° 0 mm 3 mps 749 mmHg 82%
    02:00 +30°C° 0 mm 3 mps 749 mmHg 83%
    03:00 +30°C° 0 mm 2 mps 749 mmHg 84%
    04:00 +30°C° 0 mm 2 mps 749 mmHg 85%
    05:00 +29°C° 0 mm 2 mps 748 mmHg 86%
    06:00 +29°C° 0 mm 1 mps 748 mmHg 87%
    07:00 +30°C° 0 mm 2 mps 749 mmHg 80%
    08:00 +32°C° 0 mm 2 mps 749 mmHg 73%
    09:00 +34°C° 0 mm 3 mps 750 mmHg 66%
    10:00 +35°C° 0 mm 3 mps 750 mmHg 62%
    11:00 +36°C° 0 mm 3 mps 749 mmHg 58%
    12:00 +36°C° 0 mm 3 mps 749 mmHg 54%
    13:00 +37°C° 0 mm 3 mps 748 mmHg 53%
    14:00 +37°C° 0 mm 3 mps 748 mmHg 52%
    15:00 +37°C° 0 mm 3 mps 747 mmHg 51%
    16:00 +37°C° 0 mm 3 mps 747 mmHg 52%
    17:00 +37°C° 0 mm 3 mps 747 mmHg 53%
    18:00 +36°C° 0 mm 3 mps 747 mmHg 54%
    19:00 +35°C° 0 mm 3 mps 747 mmHg 60%
    20:00 +33°C° 0 mm 4 mps 748 mmHg 66%
    21:00 +32°C° 0 mm 4 mps 749 mmHg 72%
    22:00 +31°C° 0 mm 3 mps 748 mmHg 74%
    23:00 +30°C° 0 mm 2 mps 748 mmHg 75%

    23 Julio, Martes

    Tiempo Temperatura Precipitaciones Viento Presión Humedad
    00:00 +30°C° 0 mm 1 mps 748 mmHg 77%
    01:00 +30°C° 0 mm 1 mps 748 mmHg 78%
    02:00 +30°C° 0 mm 1 mps 747 mmHg 79%
    03:00 +30°C° 0 mm 1 mps 747 mmHg 79%
    04:00 +30°C° 0 mm 1 mps 747 mmHg 80%
    05:00 +29°C° 0 mm 1 mps 747 mmHg 81%
    06:00 +29°C° 0 mm 2 mps 747 mmHg 82%
    07:00 +31°C° 0 mm 2 mps 747 mmHg 76%
    08:00 +32°C° 0 mm 2 mps 748 mmHg 70%
    09:00 +34°C° 0 mm 3 mps 748 mmHg 64%
    10:00 +35°C° 0 mm 3 mps 748 mmHg 60%
    11:00 +36°C° 0 mm 3 mps 748 mmHg 55%
    12:00 +37°C° 0 mm 3 mps 747 mmHg 51%
    13:00 +37°C° 1.1 mm 4 mps 747 mmHg 53%
    14:00 +37°C° 1.1 mm 4 mps 746 mmHg 55%
    15:00 +36°C° 1.1 mm 4 mps 746 mmHg 57%
    16:00 +36°C° 0.7 mm 4 mps 746 mmHg 60%
    17:00 +35°C° 0.7 mm 4 mps 746 mmHg 63%
    18:00 +34°C° 0.7 mm 4 mps 746 mmHg 65%
    19:00 +34°C° 0.1 mm 4 mps 746 mmHg 69%
    20:00 +33°C° 0.1 mm 4 mps 747 mmHg 73%
    21:00 +32°C° 0.1 mm 4 mps 748 mmHg 77%
    22:00 +32°C° 0 mm 4 mps 748 mmHg 77%
    23:00 +30°C° 0 mm 4 mps 748 mmHg 78%

    24 Julio, Miércoles

    Tiempo Temperatura Precipitaciones Viento Presión Humedad
    00:00 +30°C° 0 mm 4 mps 748 mmHg 79%
    01:00 +30°C° 0 mm 4 mps 747 mmHg 80%
    02:00 +30°C° 0 mm 3 mps 747 mmHg 81%
    03:00 +30°C° 0 mm 3 mps 747 mmHg 82%
    04:00 +29°C° 0 mm 3 mps 747 mmHg 82%
    05:00 +29°C° 0 mm 4 mps 747 mmHg 83%
    06:00 +29°C° 0 mm 4 mps 747 mmHg 84%
    07:00 +30°C° 0 mm 5 mps 748 mmHg 79%
    08:00 +32°C° 0 mm 5 mps 748 mmHg 74%
    09:00 +33°C° 0 mm 6 mps 748 mmHg 69%
    10:00 +34°C° 0 mm 6 mps 748 mmHg 66%
    11:00 +35°C° 0 mm 6 mps 748 mmHg 63%
    12:00 +36°C° 0 mm 7 mps 748 mmHg 59%
    13:00 +36°C° 0 mm 7 mps 747 mmHg 59%
    14:00 +36°C° 0 mm 7 mps 747 mmHg 58%
    15:00 +37°C° 0 mm 8 mps 746 mmHg 58%
    16:00 +35°C° 0 mm 7 mps 746 mmHg 62%
    17:00 +34°C° 0 mm 7 mps 746 mmHg 66%
    18:00 +33°C° 0 mm 7 mps 746 mmHg 70%
    19:00 +32°C° 0 mm 7 mps 747 mmHg 71%
    20:00 +32°C° 0 mm 7 mps 748 mmHg 73%
    21:00 +32°C° 0 mm 7 mps 748 mmHg 75%
    22:00 +30°C° 0 mm 7 mps 748 mmHg 76%
    23:00 +30°C° 0 mm 7 mps 748 mmHg 77%

    25 Julio, Jueves

    Tiempo Temperatura Precipitaciones Viento Presión Humedad
    00:00 +30°C° 0 mm 7 mps 748 mmHg 78%
    01:00 +30°C° 0 mm 6 mps 748 mmHg 78%
    02:00 +30°C° 0 mm 6 mps 748 mmHg 78%
    03:00 +30°C° 0 mm 6 mps 747 mmHg 78%
    04:00 +30°C° 0 mm 5 mps 748 mmHg 78%
    05:00 +30°C° 0 mm 5 mps 748 mmHg 79%
    06:00 +30°C° 0 mm 5 mps 748 mmHg 79%
    07:00 +32°C° 0 mm 5 mps 748 mmHg 74%
    08:00 +33°C° 0 mm 6 mps 749 mmHg 69%
    09:00 +34°C° 0 mm 7 mps 749 mmHg 64%
    10:00 +35°C° 0 mm 7 mps 749 mmHg 62%
    11:00 +35°C° 0 mm 6 mps 749 mmHg 60%
    12:00 +36°C° 0 mm 6 mps 748 mmHg 59%
    13:00 +36°C° 0 mm 6 mps 748 mmHg 58%
    14:00 +36°C° 0 mm 6 mps 747 mmHg 57%
    15:00 +38°C° 0 mm 6 mps 746 mmHg 57%
    16:00 +36°C° 0 mm 7 mps 746 mmHg 61%
    17:00 +34°C° 0 mm 7 mps 746 mmHg 64%
    18:00 +33°C° 0 mm 8 mps 746 mmHg 68%
    19:00 +33°C° 0 mm 7 mps 747 mmHg 70%
    20:00 +32°C° 0 mm 7 mps 747 mmHg 72%
    21:00 +32°C° 0 mm 7 mps 748 mmHg 74%
    22:00 +32°C° 0 mm 7 mps 748 mmHg 75%
    23:00 +32°C° 0 mm 7 mps 748 mmHg 76%
    Mostrar más